[[{"header":{"parameterUnit":"m.s-1","parameterCategory":1,"la1":30.2991,"la2":30.254,"lo1":-89.0895,"lo2":-89.0444,"dy":0.0017,"dx":0.0017,"nx":28,"ny":28,"refTime":"2026-01-05T09:00:00:Z","depth":0,"parameterNumber":2,"parameterNumberName":"U-component_of_WINDS"},"data":[0,0,0,0,0,0,0,0,0,0,0,0,0,0,0,0,0,0,0,0,0,0,0,0,0,0,0,0,0,0,0,0,0,0,0,0,0,0,0,0,0,0,0,0,0,0,0,0,0,0,0,0,0,0,0,0,0,0,-2.3981,-2.3982,0,-2.411,-2.4112,-2.4113,-2.4104,-2.4102,-2.41,-2.4098,-2.4235,-2.4241,-2.4246,0,0,0,0,0,0,0,0,0,0,0,0,0,-2.3729,-2.3734,-2.398,-2.3982,-2.3984,-2.411,-2.4112,-2.4114,-2.4104,-2.4101,-2.4099,-2.4097,-2.4233,-2.424,-2.4246,0,0,0,0,0,0,0,0,0,0,0,0,0,-2.3846,-2.3735,-2.398,-2.3994,-2.3996,-2.411,-2.4112,-2.4114,-2.4104,-2.4101,-2.4098,-2.4096,-2.4231,-2.4239,-2.4247,-2.4357,0,0,-2.4272,-2.4276,0,0,0,0,0,0,0,0,-2.384,-2.3856,-2.399,-2.3993,-2.3996,-2.4088,-2.4074,-2.4196,-2.4105,-2.4064,-2.4098,-2.4094,-2.4189,-2.42,-2.4231,-2.4363,-2.4369,-2.4273,-2.4278,-2.4282,-2.4284,0,0,0,0,0,0,0,-2.3832,-2.385,-2.4032,-2.3992,-2.3996,-2.3995,-2.4009,-2.4097,-2.4141,-2.4067,-2.4066,-2.4082,-2.419,-2.4223,-2.4234,-2.4371,-2.4273,-2.428,-2.4285,-2.4289,-2.4601,-2.4604,0,0,0,0,0,0,-2.382,-2.3843,-2.4028,-2.4036,-2.3909,-2.4002,-2.4017,-2.4061,-2.414,-2.4149,-2.4084,-2.4081,-2.4211,-2.4225,-2.4239,-2.4373,-2.4282,-2.4289,-2.4294,-2.4598,-2.4602,-2.4605,0,0,0,0,0,0,-2.3814,-2.3836,-2.4023,-2.394,-2.3963,-2.401,-2.4059,-2.4065,-2.4099,-2.4153,-2.4161,-2.411,-2.4209,-2.4228,-2.4328,-2.4377,-2.4293,-2.4301,-2.4594,-2.4599,-2.4603,-2.464,0,0,0,0,0,0,-2.3807,-2.3834,-2.3875,-2.394,-2.3968,-2.4107,-2.4062,-2.407,-2.4112,-2.4109,-2.4179,-2.4188,-2.4208,-2.4315,-2.4336,-2.4387,-2.4307,-2.4589,-2.4596,-2.4602,-2.4635,-2.4646,-2.4656,0,0,0,0,0,-2.3798,-2.3881,-2.3877,-2.3899,-2.4019,-2.411,-2.4126,-2.4146,-2.4116,-2.4159,-2.4194,-2.4186,-2.4369,-2.4326,-2.4349,-2.4403,-2.4586,-2.4594,-2.4601,-2.463,-2.4644,-2.4655,0,0,0,0,0,0,-2.3821,-2.389,-2.3886,-2.3992,-2.4045,-2.4108,-2.4162,-2.4159,-2.4223,-2.4217,-2.4241,-2.4257,-2.4357,-2.4391,-2.4341,-2.4514,-2.4474,-2.4486,-2.4488,-2.4502,-2.4512,-2.4501,-2.4314,0,0,0,0,0,-2.3839,-2.3905,-2.3962,-2.405,-2.4077,-2.4115,-2.4155,-2.4166,-2.4222,-2.4245,-2.4288,-2.4344,-2.4414,-2.446,-2.4528,-2.464,-2.4656,-2.4689,-2.47,-2.4708,-2.4718,-2.4781,-2.4797,-2.463,-2.463,-2.463,0,0,-2.3875,-2.3921,-2.3962,-2.4056,-2.4098,-2.4168,-2.4134,-2.4209,-2.4261,-2.4257,-2.4353,-2.4387,-2.4452,-2.4558,-2.4608,-2.4589,-2.4768,-2.4718,-2.4724,-2.473,-2.4791,-2.4806,-2.482,-2.4635,-2.4634,-2.4634,0,0,-2.3978,-2.4019,-2.4097,-2.414,-2.4204,-2.4229,-2.4248,-2.4312,-2.4333,-2.443,-2.4428,-2.4492,-2.4613,-2.4659,-2.4698,-2.482,-2.4815,-2.4842,-2.4895,-2.4956,-2.4969,-2.4981,-2.5025,-2.504,-2.4852,-2.4852,-2.4852,0,-2.4015,-2.4119,-2.4138,-2.4213,-2.4256,-2.4254,-2.4334,-2.4376,-2.4459,-2.4489,-2.4467,-2.4619,-2.4662,-2.478,-2.481,-2.4842,-2.4865,-2.4833,-2.4966,-2.4978,-2.4989,-2.5031,-2.5047,-2.4855,-2.4854,-2.4854,-2.4854,0,-2.4162,-2.4234,-2.429,-2.4369,-2.4418,-2.4496,-2.4528,-2.4576,-2.4583,-2.4611,-2.471,-2.4763,-2.4841,-2.487,-2.4879,-2.499,-2.4977,-2.496,-2.492,-2.5007,-2.5047,-2.5063,-2.4858,-2.4858,-2.4857,-2.4856,0,0,-2.4281,-2.4371,-2.4391,-2.4427,-2.4498,-2.4555,-2.4634,-2.471,-2.475,-2.4809,-2.4876,-2.4978,-2.4963,-2.5008,-2.5022,-2.5076,-2.5169,-2.5053,-2.5055,-2.5072,-2.5296,-2.5307,-2.5325,-2.5167,-2.517,-2.5173,-2.5291,0,-2.439,-2.4527,-2.4547,-2.4669,-2.4737,-2.4737,-2.4806,-2.4858,-2.4887,-2.495,-2.4982,-2.5054,-2.5029,-2.5056,-2.511,-2.5146,-2.5214,-2.5138,-2.5231,-2.5234,-2.5213,-2.5346,-2.5358,-2.5467,-2.5306,-2.5309,-2.5311,0,-2.4535,-2.4596,-2.4724,-2.4787,-2.4816,-2.4877,-2.4949,-2.5009,-2.5069,-2.5086,-2.5136,-2.5144,-2.5228,-2.5185,-2.5301,-2.5249,-2.5288,-2.5312,-2.5317,-2.5326,-2.5277,-2.5358,-2.5502,-2.5518,-2.5335,-2.5333,-2.5332,0,-2.4609,-2.4724,-2.4815,-2.4846,-2.4922,-2.4965,-2.4999,-2.5056,-2.5101,-2.5164,-2.5193,-2.5266,-2.5306,-2.5363,-2.5391,-2.5357,-2.5505,-2.5465,-2.5523,-2.5522,-2.5553,-2.555,-2.5704,-2.558,-2.558,-2.5579,-2.5579,0,-2.4728,-2.4807,-2.4849,-2.4905,-2.4994,-2.5017,-2.5105,-2.5138,-2.5189,-2.5253,-2.5259,-2.5319,-2.5352,-2.5418,-2.5441,-2.5534,-2.5552,-2.5569,-2.5574,-2.5568,-2.5566,-2.5594,-2.5587,-2.5584,-2.5583,-2.5582,-2.5581,0,-2.4825,-2.4856,-2.4956,-2.502,-2.5038,-2.51,-2.5155,-2.5211,-2.524,-2.5321,-2.5341,-2.5387,-2.5465,-2.5498,-2.5595,-2.561,-2.5717,-2.5716,-2.5695,-2.5697,-2.5753,-2.5747,-2.5929,-2.5955,-2.5814,-2.5815,-2.5816,0,-2.4898,-2.4958,-2.5028,-2.5071,-2.5105,-2.5174,-2.5219,-2.5246,-2.5293,-2.5367,-2.5414,-2.5492,-2.5555,-2.568,-2.5723,-2.5797,-2.5798,-2.5857,-2.581,-2.5802,-2.5799,-2.5795,-2.5801,-2.5866,-2.5867,-2.5868,-2.5869,0,-2.5025,-2.5038,-2.5102,-2.5172,-2.5226,-2.5282,-2.5338,-2.5373,-2.5409,-2.5462,-2.5541,-2.559,-2.5688,-2.5765,-2.5842,-2.5879,-2.5881,-2.5884,-2.5901,-2.5895,-2.588,-2.5889,-2.5719,-2.5879,-2.5878,-2.5878,-2.5877,-2.5877,-2.5112,-2.5166,-2.5223,-2.5295,-2.534,-2.5392,-2.5447,-2.5483,-2.5548,-2.5629,-2.5642,-2.5726,-2.5787,-2.589,-2.593,-2.5998,-2.5983,-2.6008,-2.6015,-2.602,-2.6024,-2.587,-2.6012,-2.6012,-2.6012,-2.6012,-2.6011,0,-2.5239,-2.5276,-2.5342,-2.5419,-2.5476,-2.5471,-2.5533,-2.5581,-2.5655,-2.5711,-2.5773,-2.5865,-2.594,-2.5989,-2.6066,-2.6111,-2.6114,-2.613,-2.6127,-2.6136,-2.6032,-2.6009,-2.6127,-2.6127,-2.6127,-2.6127,-2.6127,-2.6127,-2.5312,-2.5402,-2.5422,-2.5535,-2.5573,-2.5654,-2.569,-2.5739,-2.5783,-2.5885,-2.5947,-2.5978,-2.6032,-2.6113,-2.6183,-2.6196,-2.6224,-2.6241,-2.6253,-2.6155,-2.6143,-2.6131,-2.611,-2.6247,-2.6247,-2.6351,-2.6352,-2.6352]},{"header":{"parameterUnit":"m.s-1","parameterCategory":1,"la1":30.2991,"la2":30.254,"lo1":-89.0895,"lo2":-89.0444,"dy":0.0017,"dx":0.0017,"nx":28,"ny":28,"refTime":"2026-01-05T09:00:00:Z","depth":0,"parameterNumber":3,"parameterNumberName":"V-component_of_WINDS"},"data":[0,0,0,0,0,0,0,0,0,0,0,0,0,0,0,0,0,0,0,0,0,0,0,0,0,0,0,0,0,0,0,0,0,0,0,0,0,0,0,0,0,0,0,0,0,0,0,0,0,0,0,0,0,0,0,0,0,0,0.0299,0.0301,0,0.0494,0.0496,0.0499,0.0618,0.0619,0.062,0.062,0.0825,0.0829,0.0834,0,0,0,0,0,0,0,0,0,0,0,0,0,0.0034,0.0038,0.0298,0.0301,0.0303,0.0494,0.0496,0.0499,0.0618,0.0619,0.062,0.0621,0.0823,0.0829,0.0835,0,0,0,0,0,0,0,0,0,0,0,0,0,0.0181,0.0039,0.0298,0.0386,0.0395,0.0493,0.0497,0.05,0.0618,0.0619,0.062,0.0621,0.0821,0.0828,0.0835,0.0862,0,0,0.0858,0.0861,0,0,0,0,0,0,0,0,0.0172,0.0191,0.037,0.038,0.0391,0.0533,0.0478,0.0622,0.0618,0.0534,0.062,0.0621,0.0727,0.0742,0.0777,0.0872,0.0881,0.0858,0.0863,0.0866,0.0868,0,0,0,0,0,0,0,0.0162,0.0183,0.0376,0.0373,0.0385,0.0417,0.0439,0.0506,0.0623,0.0541,0.055,0.0572,0.0733,0.077,0.0783,0.0884,0.0858,0.0865,0.0869,0.0872,0.1014,0.1014,0,0,0,0,0,0,0.0137,0.0173,0.037,0.0382,0.0282,0.0421,0.0446,0.0486,0.0623,0.0644,0.0571,0.0576,0.0757,0.0774,0.079,0.0833,0.0866,0.0873,0.0877,0.1015,0.1014,0.1013,0,0,0,0,0,0,0.0131,0.0154,0.0362,0.028,0.0309,0.0425,0.047,0.049,0.0527,0.0645,0.0667,0.0586,0.0758,0.078,0.0844,0.0842,0.0876,0.0883,0.1016,0.1015,0.1014,0.0917,0,0,0,0,0,0,0.0123,0.0151,0.0161,0.028,0.0313,0.041,0.0469,0.0493,0.0538,0.0548,0.0665,0.0686,0.076,0.0832,0.0851,0.0852,0.0888,0.1016,0.1015,0.1014,0.0921,0.0913,0.0906,0,0,0,0,0,0.0113,0.0126,0.016,0.0184,0.0328,0.041,0.0429,0.0514,0.0538,0.055,0.0626,0.0682,0.0838,0.0838,0.086,0.0863,0.1017,0.1015,0.1014,0.0924,0.0914,0.0906,0,0,0,0,0,0,0.0005,0.0143,0.0183,0.0234,0.0309,0.043,0.0448,0.05,0.0571,0.0577,0.0681,0.0706,0.076,0.0819,0.0815,0.0898,0.0934,0.0937,0.0858,0.085,0.0842,0.0828,0.0894,0,0,0,0,0,-0.0014,0.004,0.0159,0.0193,0.0228,0.0331,0.037,0.0429,0.0511,0.0544,0.0625,0.0704,0.0772,0.0814,0.0882,0.093,0.0958,0.0943,0.0936,0.0929,0.0931,0.0962,0.0958,0.1009,0.1009,0.1009,0,0,-0.005,0.0032,0.006,0.0173,0.0238,0.0293,0.0357,0.0412,0.0455,0.0553,0.0619,0.0681,0.0776,0.0832,0.0861,0.0883,0.0923,0.0927,0.0921,0.0927,0.096,0.0955,0.0951,0.1008,0.1008,0.1008,0,0,-0.0088,-0.0022,0.0015,0.0079,0.0176,0.0245,0.0254,0.0367,0.0412,0.0479,0.0554,0.0607,0.0721,0.0786,0.0834,0.0823,0.0878,0.0842,0.0804,0.0833,0.0829,0.0826,0.0824,0.0822,0.0843,0.0843,0.0843,0,-0.0145,-0.0061,0.0027,0.0079,0.0127,0.0218,0.0257,0.0315,0.043,0.0463,0.0485,0.063,0.0701,0.0775,0.0772,0.0807,0.0822,0.083,0.0822,0.082,0.0819,0.0818,0.0817,0.0838,0.0839,0.0839,0.084,0,-0.0135,-0.0078,-0.006,0.0049,0.0099,0.0144,0.0241,0.0282,0.0337,0.0404,0.0473,0.056,0.0649,0.0671,0.0725,0.0754,0.0764,0.0802,0.0841,0.0808,0.0809,0.0809,0.0831,0.0833,0.0835,0.0836,0,0,-0.0237,-0.008,-0.0074,-0.0023,0.0092,0.0139,0.0189,0.0275,0.0309,0.0386,0.0432,0.0527,0.0564,0.0618,0.0681,0.0707,0.0694,0.0743,0.0747,0.0732,0.0734,0.0705,0.0702,0.0731,0.0731,0.0732,0.0726,0,-0.0257,-0.0164,-0.0082,-0.0019,0.0037,0.0125,0.0169,0.0245,0.0309,0.0368,0.044,0.0506,0.0548,0.0582,0.0612,0.0689,0.0696,0.0691,0.0777,0.0779,0.0751,0.0703,0.0672,0.0663,0.0727,0.0727,0.0727,0,-0.0268,-0.0195,-0.0127,-0.0016,0.0011,0.0049,0.0135,0.0189,0.0278,0.0324,0.0385,0.0451,0.051,0.0542,0.0626,0.0621,0.0661,0.0705,0.0707,0.0719,0.0752,0.0715,0.0662,0.066,0.0728,0.0728,0.0728,0,-0.0347,-0.0232,-0.0175,-0.0134,-0.0004,0.0021,0.0077,0.0167,0.0214,0.029,0.0323,0.0405,0.045,0.0513,0.06,0.0615,0.0676,0.0715,0.0717,0.0715,0.0727,0.0725,0.068,0.075,0.075,0.075,0.075,0,-0.0377,-0.0338,-0.0209,-0.0174,-0.0127,-0.0032,0.0013,0.0077,0.0157,0.0207,0.0288,0.0334,0.0446,0.0506,0.0574,0.0635,0.0655,0.0695,0.0713,0.0688,0.0683,0.0717,0.072,0.075,0.075,0.075,0.075,0,-0.0457,-0.0369,-0.0301,-0.0183,-0.0152,-0.0123,-0.002,0.0018,0.0087,0.015,0.0171,0.028,0.0355,0.0447,0.0552,0.0599,0.0653,0.068,0.0623,0.0633,0.0631,0.0631,0.0608,0.061,0.0676,0.0675,0.0674,0,-0.0482,-0.045,-0.0328,-0.0289,-0.0236,-0.0174,-0.0125,-0.003,0.0017,0.0123,0.0149,0.023,0.03,0.0416,0.0506,0.0587,0.0618,0.0604,0.063,0.0605,0.062,0.0617,0.0622,0.0597,0.0596,0.0595,0.0594,0,-0.0534,-0.0492,-0.0426,-0.0345,-0.0289,-0.022,-0.0147,-0.0119,-0.0009,0.0041,0.0118,0.0172,0.028,0.036,0.0453,0.0514,0.0573,0.0585,0.059,0.0566,0.0532,0.0552,0.0605,0.0585,0.0586,0.0587,0.0587,0.0588,-0.0585,-0.0552,-0.0461,-0.039,-0.0325,-0.0259,-0.0216,-0.0142,-0.0076,0.0018,0.0071,0.0147,0.0238,0.0369,0.0427,0.049,0.0511,0.0518,0.0521,0.0521,0.0514,0.0521,0.0507,0.0507,0.0508,0.0508,0.0508,0,-0.0632,-0.0569,-0.0505,-0.0405,-0.0349,-0.0299,-0.0215,-0.0171,-0.0105,-0.0026,0.0041,0.0132,0.021,0.0306,0.0392,0.0424,0.0453,0.0443,0.0443,0.0456,0.0489,0.0477,0.0418,0.0418,0.0418,0.0418,0.0418,0.0418,-0.065,-0.059,-0.0537,-0.0444,-0.038,-0.0305,-0.0262,-0.0199,-0.0135,-0.0038,0.0027,0.0089,0.0176,0.0269,0.0344,0.0371,0.0399,0.0381,0.0416,0.0445,0.0453,0.0461,0.045,0.0386,0.0386,0.0378,0.0378,0.0378]}]]